[[{"header":{"parameterUnit":"m.s-1","parameterCategory":1,"la1":30.2991,"la2":30.254,"lo1":-89.0895,"lo2":-89.0444,"dy":0.0017,"dx":0.0017,"nx":28,"ny":28,"refTime":"2024-05-16T09:00:00:Z","depth":0,"parameterNumber":2,"parameterNumberName":"U-component_of_WINDS"},"data":[0,0,0,0,0,0,0,0,0,0,0,0,0,0,0,0,0,0,0,0,0,0,0,0,0,0,0,0,0,0,0,0,0,0,0,0,0,0,0,0,0,0,0,0,0,0,0,0,0,0,0,0,0,0,0,0,0,0,-3.2189,-3.219,0,-3.2295,-3.2297,-3.2298,-3.2325,-3.2325,-3.2324,-3.2324,-3.2433,-3.2436,-3.244,0,0,0,0,0,0,0,0,0,0,0,0,0,-3.201,-3.2013,-3.2189,-3.219,-3.2192,-3.2295,-3.2297,-3.2298,-3.2326,-3.2325,-3.2324,-3.2323,-3.2431,-3.2436,-3.244,0,0,0,0,0,0,0,0,0,0,0,0,0,-3.2099,-3.2014,-3.2189,-3.2218,-3.2221,-3.2295,-3.2297,-3.2298,-3.2326,-3.2325,-3.2324,-3.2323,-3.243,-3.2435,-3.244,-3.2492,0,0,-3.2457,-3.2459,0,0,0,0,0,0,0,0,-3.2094,-3.2105,-3.2212,-3.2216,-3.222,-3.2296,-3.2273,-3.2363,-3.2326,-3.2286,-3.2324,-3.2322,-3.2388,-3.2397,-3.2419,-3.2498,-3.2502,-3.2457,-3.246,-3.2462,-3.2464,0,0,0,0,0,0,0,-3.2087,-3.2101,-3.2231,-3.2214,-3.2219,-3.2225,-3.2237,-3.2291,-3.2341,-3.229,-3.2292,-3.2304,-3.239,-3.2414,-3.2422,-3.2504,-3.2457,-3.2462,-3.2465,-3.2467,-3.263,-3.2631,0,0,0,0,0,0,-3.2076,-3.2096,-3.2228,-3.2234,-3.2153,-3.2229,-3.2242,-3.2273,-3.2341,-3.235,-3.2305,-3.2305,-3.2405,-3.2415,-3.2425,-3.249,-3.2462,-3.2467,-3.247,-3.2628,-3.263,-3.2631,0,0,0,0,0,0,-3.2072,-3.2088,-3.2223,-3.2166,-3.2183,-3.2234,-3.2267,-3.2275,-3.2299,-3.2352,-3.2361,-3.232,-3.2405,-3.2418,-3.2475,-3.2494,-3.247,-3.2474,-3.2627,-3.2629,-3.263,-3.262,0,0,0,0,0,0,-3.2067,-3.2086,-3.2107,-3.2166,-3.2186,-3.2271,-3.2269,-3.2278,-3.2308,-3.2309,-3.2369,-3.2377,-3.2405,-3.2467,-3.2481,-3.2501,-3.2479,-3.2626,-3.2628,-3.263,-3.2619,-3.2621,-3.2623,0,0,0,0,0,-3.2061,-3.21,-3.2107,-3.2123,-3.2213,-3.2273,-3.2284,-3.2315,-3.2309,-3.233,-3.2364,-3.2376,-3.249,-3.2473,-3.2488,-3.251,-3.2624,-3.2627,-3.263,-3.2618,-3.262,-3.2623,0,0,0,0,0,0,-3.2042,-3.2108,-3.2117,-3.2177,-3.2219,-3.2277,-3.2304,-3.2317,-3.2362,-3.2361,-3.2398,-3.2411,-3.2465,-3.2494,-3.2473,-3.2564,-3.2557,-3.2563,-3.2543,-3.2546,-3.2548,-3.254,-3.2483,0,0,0,0,0,-3.2045,-3.2087,-3.2143,-3.219,-3.2211,-3.2254,-3.2281,-3.2301,-3.2346,-3.2364,-3.2402,-3.2445,-3.2491,-3.252,-3.2565,-3.2623,-3.2636,-3.2646,-3.2648,-3.2649,-3.2654,-3.2685,-3.269,-3.264,-3.264,-3.264,0,0,-3.2051,-3.2092,-3.2117,-3.2188,-3.2222,-3.2266,-3.2269,-3.2315,-3.2347,-3.2371,-3.2427,-3.2456,-3.2507,-3.2564,-3.2592,-3.259,-3.267,-3.2653,-3.2653,-3.2657,-3.2688,-3.2693,-3.2697,-3.2641,-3.2641,-3.2641,0,0,-3.2084,-3.212,-3.2163,-3.2197,-3.225,-3.2278,-3.2288,-3.2345,-3.2365,-3.2422,-3.244,-3.2479,-3.2557,-3.2592,-3.262,-3.2666,-3.2677,-3.2679,-3.269,-3.272,-3.2724,-3.2728,-3.2743,-3.2748,-3.2684,-3.2684,-3.2684,0,-3.2085,-3.2151,-3.2183,-3.2228,-3.2258,-3.2281,-3.2324,-3.2356,-3.2421,-3.2441,-3.2438,-3.2536,-3.2572,-3.2637,-3.2648,-3.267,-3.2682,-3.2672,-3.2721,-3.2725,-3.2729,-3.2744,-3.275,-3.2683,-3.2683,-3.2683,-3.2684,0,-3.215,-3.2195,-3.2223,-3.2284,-3.2317,-3.2361,-3.2399,-3.2429,-3.2446,-3.2474,-3.2531,-3.2575,-3.2629,-3.2646,-3.2663,-3.2713,-3.271,-3.2714,-3.2708,-3.2733,-3.2748,-3.2754,-3.2683,-3.2683,-3.2683,-3.2683,0,0,-3.2175,-3.2252,-3.2262,-3.2289,-3.2348,-3.2384,-3.2428,-3.248,-3.2505,-3.2548,-3.2586,-3.2651,-3.2654,-3.2686,-3.2707,-3.2734,-3.2766,-3.2734,-3.2736,-3.2738,-3.2822,-3.2819,-3.2825,-3.2774,-3.2775,-3.2776,-3.2818,0,-3.2215,-3.2295,-3.2324,-3.239,-3.2431,-3.2453,-3.2492,-3.2532,-3.256,-3.2599,-3.263,-3.2675,-3.2676,-3.2695,-3.2723,-3.2756,-3.2783,-3.2754,-3.2809,-3.2811,-3.2795,-3.2833,-3.2829,-3.2866,-3.2824,-3.2825,-3.2826,0,-3.2273,-3.2316,-3.2385,-3.2437,-3.2456,-3.249,-3.254,-3.2577,-3.2623,-3.2641,-3.2676,-3.2695,-3.2742,-3.2734,-3.2798,-3.2777,-3.2802,-3.2822,-3.2824,-3.283,-3.2819,-3.2839,-3.2879,-3.2884,-3.2835,-3.2834,-3.2834,0,-3.2282,-3.2358,-3.2409,-3.2432,-3.2495,-3.2518,-3.2545,-3.259,-3.2619,-3.2663,-3.2682,-3.273,-3.2756,-3.2793,-3.2825,-3.2816,-3.2886,-3.2881,-3.2902,-3.2901,-3.2916,-3.2914,-3.296,-3.2933,-3.2932,-3.2932,-3.2932,0,-3.2324,-3.2365,-3.2414,-3.2445,-3.2492,-3.2525,-3.2571,-3.2599,-3.2639,-3.2676,-3.2698,-3.2732,-3.2773,-3.2812,-3.2837,-3.2886,-3.2898,-3.2914,-3.292,-3.2911,-3.2909,-3.2927,-3.2925,-3.2934,-3.2934,-3.2933,-3.2933,0,-3.2343,-3.2378,-3.2434,-3.2489,-3.2503,-3.2535,-3.2582,-3.2613,-3.2641,-3.2687,-3.27,-3.2744,-3.2792,-3.2827,-3.2889,-3.2905,-3.2957,-3.2964,-3.2942,-3.2945,-3.2964,-3.2961,-3.3022,-3.3031,-3.2998,-3.2999,-3.2999,0,-3.2367,-3.2399,-3.2456,-3.2482,-3.2509,-3.2551,-3.2581,-3.2614,-3.2644,-3.2698,-3.2722,-3.2771,-3.2811,-3.2886,-3.2924,-3.297,-3.2978,-3.2996,-3.2985,-3.2975,-3.2977,-3.2975,-3.2977,-3.2997,-3.2998,-3.2998,-3.2998,0,-3.2405,-3.2421,-3.2462,-3.2509,-3.2543,-3.2582,-3.2621,-3.2641,-3.2682,-3.2714,-3.2762,-3.2793,-3.2855,-3.2903,-3.2954,-3.2982,-3.2996,-3.3001,-3.3008,-3.3,-3.2985,-3.2992,-3.2945,-3.2999,-3.2999,-3.2999,-3.2999,-3.2999,-3.2428,-3.2457,-3.2501,-3.2546,-3.2578,-3.2614,-3.2645,-3.2677,-3.2717,-3.277,-3.2788,-3.2837,-3.2881,-3.295,-3.2979,-3.3018,-3.3018,-3.3028,-3.3031,-3.3033,-3.3032,-3.2979,-3.3027,-3.3027,-3.3027,-3.3027,-3.3027,0,-3.2467,-3.2496,-3.2537,-3.259,-3.2625,-3.2635,-3.2678,-3.2707,-3.275,-3.279,-3.2829,-3.2883,-3.293,-3.297,-3.3018,-3.3042,-3.3049,-3.3053,-3.3051,-3.3057,-3.303,-3.3018,-3.3046,-3.3046,-3.3046,-3.3046,-3.3046,-3.3046,-3.2491,-3.254,-3.256,-3.2625,-3.2654,-3.2702,-3.2726,-3.2759,-3.279,-3.285,-3.2888,-3.2914,-3.2954,-3.3005,-3.3047,-3.3058,-3.3074,-3.3076,-3.3088,-3.3062,-3.3059,-3.3057,-3.3047,-3.308,-3.308,-3.3113,-3.3113,-3.3113]},{"header":{"parameterUnit":"m.s-1","parameterCategory":1,"la1":30.2991,"la2":30.254,"lo1":-89.0895,"lo2":-89.0444,"dy":0.0017,"dx":0.0017,"nx":28,"ny":28,"refTime":"2024-05-16T09:00:00:Z","depth":0,"parameterNumber":3,"parameterNumberName":"V-component_of_WINDS"},"data":[0,0,0,0,0,0,0,0,0,0,0,0,0,0,0,0,0,0,0,0,0,0,0,0,0,0,0,0,0,0,0,0,0,0,0,0,0,0,0,0,0,0,0,0,0,0,0,0,0,0,0,0,0,0,0,0,0,0,5.2773,5.2773,0,5.2741,5.2741,5.274,5.2643,5.2641,5.2638,5.2636,5.2606,5.2607,5.2608,0,0,0,0,0,0,0,0,0,0,0,0,0,5.2754,5.2754,5.2773,5.2773,5.2773,5.2741,5.2741,5.274,5.2643,5.264,5.2638,5.2635,5.2606,5.2607,5.2609,0,0,0,0,0,0,0,0,0,0,0,0,0,5.2746,5.2755,5.2773,5.272,5.2715,5.2741,5.2741,5.274,5.2644,5.264,5.2637,5.2634,5.2605,5.2607,5.2609,5.2685,0,0,5.2614,5.2615,0,0,0,0,0,0,0,0,5.2747,5.2747,5.2728,5.2724,5.2718,5.2692,5.2722,5.2722,5.2644,5.2671,5.2636,5.2633,5.2638,5.2637,5.2638,5.2683,5.2682,5.2614,5.2616,5.2616,5.2617,0,0,0,0,0,0,0,5.2747,5.2748,5.2761,5.2728,5.2722,5.2699,5.2694,5.2722,5.2673,5.2668,5.2661,5.2658,5.2634,5.2636,5.2636,5.2681,5.2614,5.2616,5.2617,5.2618,5.2788,5.2791,0,0,0,0,0,0,5.2755,5.2749,5.2762,5.276,5.2725,5.2702,5.2697,5.2704,5.2672,5.2664,5.2661,5.2654,5.2635,5.2634,5.2635,5.2722,5.2616,5.2618,5.2619,5.2785,5.2789,5.2792,0,0,0,0,0,0,5.2755,5.2757,5.2763,5.2752,5.2751,5.2706,5.2715,5.2705,5.2707,5.2667,5.2658,5.2672,5.2632,5.2632,5.2673,5.2719,5.2619,5.262,5.2781,5.2786,5.2791,5.2896,0,0,0,0,0,0,5.2755,5.2758,5.2785,5.2754,5.2752,5.2801,5.2718,5.2707,5.271,5.27,5.2675,5.2667,5.263,5.2671,5.2675,5.272,5.2622,5.2776,5.2783,5.2789,5.2888,5.2904,5.2918,0,0,0,0,0,5.2754,5.2817,5.2787,5.2789,5.2786,5.2804,5.2803,5.2758,5.2714,5.2742,5.2716,5.2668,5.2714,5.2676,5.2679,5.2726,5.2773,5.2781,5.2788,5.2882,5.2901,5.2918,0,0,0,0,0,0,5.2856,5.2812,5.2778,5.2832,5.2823,5.2787,5.2821,5.278,5.2783,5.2774,5.2718,5.2713,5.2761,5.2747,5.2706,5.2798,5.2735,5.2744,5.2805,5.2823,5.2838,5.284,5.2623,0,0,0,0,0,5.2885,5.2902,5.2863,5.2914,5.2911,5.2867,5.2873,5.2839,5.2827,5.2823,5.28,5.2791,5.2803,5.2812,5.2821,5.2886,5.2879,5.292,5.2935,5.2947,5.2956,5.2989,5.3007,5.2818,5.2818,5.2818,0,0,5.2944,5.2922,5.2937,5.2934,5.2923,5.2943,5.2864,5.2889,5.2904,5.2827,5.2863,5.2847,5.2833,5.2886,5.2908,5.2876,5.3006,5.2957,5.2967,5.2969,5.2999,5.3017,5.3033,5.2823,5.2822,5.2821,0,0,5.3063,5.3048,5.3089,5.3079,5.3062,5.3033,5.3043,5.3014,5.2999,5.3035,5.2978,5.2995,5.3017,5.301,5.3009,5.3125,5.3082,5.313,5.3208,5.3241,5.3256,5.3269,5.3311,5.3327,5.3138,5.3139,5.3139,0,5.314,5.3167,5.3116,5.3144,5.3145,5.3075,5.3117,5.311,5.3098,5.31,5.3064,5.309,5.3076,5.3127,5.3155,5.3157,5.3167,5.3133,5.3258,5.327,5.3282,5.3321,5.3337,5.3145,5.3144,5.3143,5.3143,0,5.3262,5.3282,5.3318,5.3306,5.3311,5.3346,5.3301,5.3313,5.3278,5.3253,5.3291,5.3271,5.3275,5.3285,5.3251,5.3331,5.3311,5.3268,5.3204,5.3307,5.3343,5.3357,5.3153,5.3151,5.3149,5.3148,0,0,5.3445,5.3404,5.3418,5.3412,5.3389,5.3403,5.3436,5.3439,5.345,5.3444,5.347,5.349,5.3449,5.3449,5.3414,5.3444,5.3538,5.3396,5.3395,5.3423,5.3625,5.3659,5.3677,5.3508,5.3511,5.3513,5.3626,0,5.3557,5.3609,5.3564,5.3625,5.3643,5.3577,5.3606,5.3595,5.3572,5.3585,5.356,5.3576,5.352,5.3519,5.3546,5.3521,5.3578,5.3512,5.3533,5.3535,5.3539,5.3696,5.3731,5.3839,5.364,5.3642,5.3644,0,5.3696,5.3695,5.3758,5.373,5.3736,5.3762,5.3761,5.3774,5.3761,5.3742,5.3742,5.3699,5.373,5.3667,5.3709,5.3666,5.3672,5.3661,5.3664,5.3665,5.3596,5.3701,5.3872,5.3889,5.3666,5.3664,5.3663,0,5.3823,5.3838,5.3877,5.3874,5.3843,5.3863,5.3851,5.3834,5.3839,5.3839,5.3841,5.3845,5.3848,5.3852,5.3812,5.377,5.386,5.3794,5.3846,5.3848,5.3868,5.3868,5.4043,5.3872,5.3872,5.3871,5.3871,0,5.3954,5.3996,5.3934,5.3958,5.4003,5.3951,5.3997,5.3978,5.3964,5.3984,5.3927,5.3948,5.3893,5.3909,5.3878,5.3918,5.3919,5.3906,5.3897,5.3911,5.3913,5.3915,5.3907,5.3876,5.3875,5.3874,5.3873,0,5.4105,5.4065,5.4103,5.407,5.4063,5.4097,5.4069,5.4091,5.4064,5.4091,5.4094,5.4053,5.4068,5.4028,5.4037,5.4016,5.4074,5.4053,5.4079,5.4073,5.4128,5.4123,5.4311,5.4333,5.4147,5.4149,5.4151,0,5.4191,5.4221,5.4191,5.42,5.419,5.4206,5.421,5.4161,5.4168,5.4155,5.4178,5.4188,5.4194,5.4221,5.4192,5.4199,5.4179,5.4244,5.4179,5.4193,5.418,5.4179,5.4182,5.4258,5.426,5.4262,5.4263,0,5.4349,5.4328,5.4335,5.4337,5.4343,5.4342,5.4337,5.4348,5.4295,5.4306,5.432,5.4325,5.4333,5.4345,5.4345,5.4334,5.4291,5.4283,5.4296,5.4311,5.4325,5.4319,5.4116,5.428,5.4278,5.4277,5.4276,5.4275,5.447,5.4494,5.4476,5.4487,5.4478,5.4474,5.4493,5.4469,5.4479,5.4482,5.4452,5.4473,5.4459,5.4455,5.4448,5.4464,5.4435,5.4453,5.4458,5.4463,5.4472,5.4322,5.4464,5.4464,5.4463,5.4463,5.4462,0,5.4626,5.4611,5.4621,5.4616,5.4624,5.4581,5.4574,5.4584,5.4603,5.4593,5.4599,5.4616,5.4626,5.4599,5.4605,5.4623,5.4604,5.4627,5.4626,5.4624,5.4498,5.4487,5.4643,5.4643,5.4643,5.4643,5.4643,5.4643,5.4708,5.4745,5.4722,5.4755,5.474,5.4759,5.4759,5.4756,5.4747,5.4768,5.4776,5.4758,5.4741,5.4746,5.4754,5.4746,5.4751,5.4782,5.4767,5.465,5.4633,5.4616,5.4605,5.4783,5.4783,5.4891,5.4892,5.4893]}]]